User: anonymous   Login
Location: Cormont
(50.5693°N, 1.7416°E)
Time: 12:59:53
(UTC+00:00)
Language:

STARLINK-21 - Orbit

View from above orbital plane
View from above orbital plane
View from above satellite
View from above satellite

Ground track
Ground track

The orbit data is extracted from the following two-line orbital elements,

1 44245U 19029L   20265.98160791  .31154212  12542-4  14539-2 0  9997
2 44245  53.0037  83.3120 0006865 333.5091 155.9539 16.42788868 74360
Epoch (UTC): 21 September 2020 23:33:30
Eccentricity: 0.0006865
inclination: 53.0037°
perigee height: 154 km
apogee height: 163 km
right ascension of ascending node: 83.3120°
argument of perigee: 333.5091°
revolutions per day: 16.42788868
mean anomaly at epoch: 155.9539°
orbit number at epoch: 7436

The dashed part of the orbit path shows where the satellite is in the earth's shadow,  

DLR